Location: Boiro
(42.6475°N, 8.8834°W)
Time: 11:31:22
(UTC+02:00)

deb Agena D - Pass Details

Date: 07 July 2022
Orbit: 997 x 1025 km, 100.1° (Epoch: 16 August)

Event Time Altitude Azimuth Distance (km) Brightness Sun altitude
Exits shadow 02:38:56 30° 238° (WSW) 1,731 ? -24.7°
Maximum altitude 02:40:19 34° 263° (W) 1,638 ? -24.7°
Drops below altitude 10° 02:46:00 10° 326° (NNW) 2,826 ? -24.7°
Sets 02:48:48 0° 336° (NNW) 3,781 ? -24.7°
